Vorticity
4 6 6 7 6 5 5 5 6 5 4 7 29 5 2 10 16 11 24 2 27 24 9 12 12 11 15 19 20 13 3 12 12 -4 39 29 15 10 6 5 6 4 3 5 3 5 7
4 4 6 7 8 6 5 5 6 5 5 4 21 17 -1 -10 10 7 8 22 19 23 11 20 7 6 3 4 5 2 17 24 -2 17 17 32 17 12 8 7 3 5 5 4 3 8 6
3 3 4 6 7 7 5 5 5 6 4 5 13 28 13 2 5 16 8 13 8 3 21 20 5 4 13 12 10 2 1 -31 36 8 12 33 16 11 8 7 5 6 6 4 2 10 5
2 5 4 4 6 9 6 5 5 5 6 3 6 21 22 20 6 11 14 7 22 -0 5 8 36 37 19 11 3 22 9 36 3 16 18 26 12 10 9 5 5 5 4 4 2 10 4
4 4 6 5 5 10 9 6 5 4 6 4 4 11 15 16 12 3 18 10 11 18 5 11 12 46 20 15 21 21 11 22 -3 46 26 17 17 12 9 6 4 8 6 3 4 7 4
4 4 6 8 5 6 10 7 5 6 4 6 4 6 12 15 21 3 12 19 8 14 2 9 12 39 6 13 22 17 14 12 2 20 1 1 15 10 8 6 7 4 5 5 6 8 5
5 3 6 8 6 4 9 10 5 5 5 5 6 5 9 11 15 7 3 22 9 16 14 9 13 15 20 2 16 30 21 19 2 16 31 28 15 8 7 9 4 5 6 7 10 7 5
6 4 4 6 6 5 7 9 8 5 5 6 6 5 7 10 18 10 9 13 13 11 11 17 8 7 13 39 5 4 18 13 -3 29 30 20 13 9 11 6 6 3 7 9 8 7 5
2 5 6 7 8 5 6 9 9 7 5 5 7 6 6 8 13 17 6 9 17 8 12 20 8 8 9 21 40 13 3 1 21 18 9 15 13 12 8 8 7 4 6 8 7 8 8
-0 -1 8 7 8 6 5 7 8 9 7 4 6 7 7 7 10 21 7 10 13 11 8 13 15 4 6 4 18 8 29 43 31 10 7 24 8 15 10 7 7 8 7 7 7 7 5
1 -1 8 8 7 8 5 4 8 8 10 7 5 7 6 7 9 8 16 9 12 17 15 16 8 10 14 3 6 11 5 8 13 8 23 12 13 13 12 7 12 6 8 8 7 7 7
3 1 6 4 8 8 6 3 4 6 7 11 5 5 7 6 7 10 7 14 12 10 16 18 12 5 21 -3 7 2 10 15 10 11 11 12 16 14 14 11 8 10 8 7 7 7 3
4 0 4 3 8 7 6 5 3 4 6 8 10 5 3 7 7 9 11 1 13 16 11 12 19 11 11 18 7 9 4 9 24 9 15 8 8 9 6 5 3 4 3 2 9 11 13
7 1 5 4 3 7 6 7 4 3 5 6 6 10 7 3 7 7 8 9 8 11 13 10 17 17 15 13 11 22 9 2 6 14 7 8 7 7 8 6 10 11 15 12 6 9 6
1 2 4 4 8 4 6 6 6 5 4 6 4 4 8 7 5 5 7 6 8 7 13 12 8 14 17 18 13 11 29 2 5 2 8 15 16 9 7 8 5 2 2 2 1 -2 1
1 2 3 4 5 10 5 6 6 5 5 5 3 4 4 7 8 8 4 8 8 9 4 7 12 9 11 14 20 19 10 20 24 8 4 8 6 5 8 2 1 1 3 2 3 4 5
1 1 7 8 9 8 8 4 6 5 6 7 5 4 4 5 6 7 9 6 6 7 9 8 3 10 12 9 12 14 13 14 15 19 17 8 8 8 4 5 6 3 4 3 5 7 13
-1 1 9 6 12 14 9 4 7 4 7 7 7 5 4 5 3 7 10 10 8 2 7 7 9 7 3 5 12 10 14 12 11 12 13 14 11 17 18 21 17 14 14 9 10 8 8
0 8 8 8 9 5 14 5 5 6 4 5 3 4 3 4 4 6 12 10 10 9 5 6 6 5 10 7 5 3 5 13 16 15 12 9 6 9 7 7 8 7 6 4 4 4 7
7 8 9 8 8 5 5 14 6 8 6 8 6 5 5 7 6 7 8 9 11 9 10 7 5 6 4 6 8 6 7 4 2 1 5 18 20 21 18 12 13 15 15 15 18 24 18
6 11 10 10 6 9 8 9 10 10 11 12 8 4 3 7 7 7 9 9 8 11 12 9 6 8 7 7 6 5 4 7 8 7 5 4 3 2 4 5 9 10 10 11 11 9 11
9 9 12 7 2 7 7 6 8 8 8 8 10 10 8 6 6 11 5 10 9 9 9 12 12 9 5 6 6 6 7 5 3 4 6 7 7 7 5 8 6 8 4 2 5 8 6
4 9 5 6 4 3 4 1 1 1 1 6 4 4 6 6 3 3 4 6 9 6 7 6 8 8 10 9 7 7 8 7 7 7 6 4 4 6 7 4 6 6 6 5 5 4 4
1 2 3 1 4 5 3 3 3 -1 1 2 2 6 4 5 3 2 1 -2 1 14 5 8 5 6 5 4 5 8 6 8 7 8 9 7 6 5 5 4 5 4 4 5 6 6 7
1 3 3 2 3 2 3 1 2 0 2 -1 2 4 9 6 4 2 4 5 2 2 3 11 7 4 6 6 6 4 4 5 4 4 6 7 9 12 12 5 3 4 5 4 2 2 4
7 5 4 1 2 3 3 2 2 4 3 2 2 -1 3 2 3 3 7 7 2 1 5 3 4 7 6 4 5 8 7 7 13 17 12 9 9 7 8 7 11 16 14 12 13 10 6
6 9 9 5 5 5 3 3 4 3 2 4 3 3 2 2 1 3 3 -0 2 9 6 3 1 5 2 4 5 4 3 5 -0 4 6 7 6 6 11 11 6 10 8 9 13 14 15
6 5 6 6 6 8 8 6 8 5 8 3 1 3 3 0 2 1 1 2 3 2 6 4 7 5 -0 3 3 5 4 5 6 2 5 3 6 5 7 7 0 -1 5 4 6 6 7
12 7 5 4 2 4 3 5 5 5 6 8 7 6 7 6 4 6 3 -0 2 0 3 4 5 9 5 2 2 0 5 11 10 8 6 9 7 5 2 6 9 10 14 9 9 8 10
Height
5811 5806 5800 5794 5788 5783 5775 5767 5759 5748 5738 5726 5714 5701 5692 5679 5667 5655 5643 5634 5624 5617 5614 5613 5614 5617 5619 5621 5624 5630 5636 5642 5649 5656 5665 5678 5695 5709 5725 5737 5751 5763 5775 5784 5792 5803 5811
5812 5807 5801 5795 5788 5783 5775 5767 5759 5749 5739 5727 5716 5703 5695 5684 5672 5661 5650 5641 5636 5628 5624 5621 5621 5621 5624 5627 5630 5634 5637 5643 5649 5657 5667 5679 5693 5705 5719 5733 5747 5761 5772 5781 5788 5800 5809
5812 5807 5802 5796 5789 5783 5776 5768 5759 5750 5740 5729 5719 5707 5696 5688 5677 5666 5657 5648 5640 5636 5632 5629 5627 5627 5625 5629 5632 5636 5638 5641 5651 5658 5668 5680 5692 5707 5719 5733 5746 5757 5769 5778 5786 5798 5805
5813 5808 5802 5796 5790 5784 5778 5770 5761 5752 5743 5732 5722 5712 5700 5691 5681 5672 5662 5654 5646 5643 5640 5637 5632 5628 5630 5628 5633 5637 5640 5644 5653 5662 5671 5682 5693 5707 5721 5732 5744 5755 5766 5775 5784 5794 5802
5813 5808 5803 5798 5791 5785 5778 5772 5764 5754 5745 5735 5725 5714 5705 5694 5686 5677 5668 5660 5653 5648 5644 5640 5635 5631 5633 5632 5637 5640 5645 5649 5657 5667 5675 5684 5697 5710 5723 5733 5743 5752 5763 5773 5782 5790 5798
5813 5808 5804 5799 5793 5786 5779 5773 5766 5757 5749 5739 5728 5719 5708 5699 5691 5683 5674 5667 5660 5654 5649 5646 5643 5643 5643 5641 5643 5645 5650 5659 5667 5671 5677 5687 5701 5713 5723 5732 5743 5752 5762 5772 5781 5789 5795
5813 5809 5804 5799 5793 5787 5781 5774 5768 5761 5752 5743 5733 5724 5714 5703 5696 5689 5681 5672 5667 5662 5658 5652 5651 5650 5648 5649 5651 5653 5659 5666 5669 5675 5682 5691 5703 5711 5722 5734 5745 5756 5765 5774 5780 5786 5793
5813 5809 5805 5800 5795 5789 5782 5776 5769 5763 5756 5748 5739 5729 5720 5710 5702 5693 5685 5681 5674 5670 5666 5661 5658 5658 5658 5657 5660 5660 5667 5673 5676 5682 5688 5699 5706 5715 5727 5738 5748 5756 5764 5772 5779 5786 5792
5814 5809 5805 5801 5796 5791 5785 5779 5772 5766 5759 5751 5744 5736 5727 5719 5709 5702 5695 5690 5682 5677 5673 5671 5670 5668 5668 5667 5669 5670 5674 5678 5683 5688 5694 5704 5713 5721 5730 5741 5751 5758 5765 5772 5779 5784 5789
5813 5809 5805 5801 5797 5792 5786 5781 5775 5769 5763 5756 5748 5742 5735 5726 5719 5710 5704 5697 5690 5685 5682 5679 5680 5679 5678 5677 5679 5679 5682 5686 5690 5695 5701 5710 5718 5725 5734 5743 5752 5760 5766 5772 5778 5783 5788
5812 5809 5805 5801 5797 5793 5788 5783 5778 5772 5766 5760 5753 5746 5740 5733 5726 5719 5713 5707 5700 5694 5690 5689 5688 5687 5686 5689 5690 5689 5690 5693 5698 5704 5711 5716 5723 5730 5737 5744 5752 5759 5766 5772 5778 5783 5787
5811 5808 5805 5801 5797 5794 5790 5784 5780 5775 5770 5764 5758 5751 5745 5739 5733 5727 5721 5716 5710 5705 5698 5696 5695 5694 5694 5695 5697 5699 5699 5701 5705 5709 5715 5722 5728 5734 5740 5747 5753 5759 5766 5772 5777 5781 5785
5809 5807 5804 5800 5797 5794 5791 5786 5781 5777 5772 5768 5762 5756 5750 5744 5739 5733 5729 5724 5720 5712 5708 5705 5701 5701 5700 5701 5704 5706 5708 5710 5714 5716 5720 5724 5730 5736 5742 5748 5754 5760 5766 5771 5776 5779 5783
5806 5804 5802 5799 5796 5794 5790 5787 5783 5778 5774 5770 5766 5761 5754 5750 5745 5740 5735 5732 5727 5719 5714 5711 5709 5707 5706 5708 5709 5712 5715 5717 5719 5722 5726 5729 5735 5738 5743 5747 5754 5759 5765 5769 5773 5776 5780
5803 5801 5800 5798 5795 5793 5790 5787 5783 5779 5776 5772 5767 5763 5759 5755 5750 5745 5741 5738 5732 5727 5723 5719 5717 5715 5713 5713 5715 5716 5719 5723 5724 5726 5730 5733 5737 5741 5744 5747 5754 5759 5763 5767 5770 5772 5774
5799 5798 5797 5795 5793 5791 5789 5786 5783 5780 5776 5773 5769 5765 5762 5758 5754 5749 5746 5743 5737 5733 5730 5727 5725 5723 5721 5720 5720 5720 5723 5726 5729 5732 5734 5737 5739 5742 5746 5749 5752 5755 5759 5762 5764 5766 5766
5795 5794 5793 5791 5790 5788 5786 5784 5782 5779 5776 5773 5770 5766 5763 5759 5756 5752 5749 5746 5743 5739 5735 5733 5732 5730 5728 5726 5725 5725 5727 5729 5731 5734 5738 5741 5744 5745 5747 5749 5749 5753 5755 5758 5759 5760 5761
5791 5790 5789 5787 5785 5784 5783 5781 5779 5778 5775 5773 5770 5767 5763 5760 5758 5753 5751 5748 5746 5743 5740 5738 5735 5734 5734 5732 5731 5731 5731 5732 5732 5735 5737 5740 5743 5745 5748 5749 5750 5752 5754 5755 5756 5759 5758
5785 5785 5784 5782 5782 5780 5779 5778 5776 5774 5772 5771 5769 5766 5764 5761 5758 5754 5751 5748 5746 5745 5743 5741 5740 5738 5736 5736 5737 5736 5735 5735 5736 5736 5737 5739 5741 5742 5745 5748 5749 5750 5751 5752 5753 5753 5755
5777 5779 5778 5777 5777 5776 5776 5774 5773 5772 5770 5769 5767 5765 5764 5761 5758 5755 5752 5749 5746 5744 5743 5742 5741 5741 5739 5738 5737 5738 5738 5738 5738 5739 5740 5741 5741 5742 5744 5745 5746 5747 5747 5747 5747 5748 5747
5770 5771 5771 5772 5772 5771 5771 5771 5770 5768 5767 5767 5764 5763 5761 5759 5757 5754 5752 5750 5747 5745 5743 5742 5741 5740 5740 5740 5739 5738 5737 5738 5738 5739 5739 5740 5741 5741 5742 5742 5742 5742 5742 5741 5742 5741 5741
5762 5763 5765 5765 5766 5766 5766 5765 5765 5765 5764 5764 5762 5760 5759 5757 5755 5753 5751 5748 5747 5745 5743 5741 5741 5740 5738 5738 5738 5738 5738 5738 5738 5737 5737 5737 5737 5737 5737 5737 5737 5737 5736 5735 5736 5736 5735
5754 5755 5757 5758 5759 5760 5760 5760 5760 5759 5760 5759 5759 5757 5756 5755 5753 5753 5751 5749 5746 5745 5743 5740 5739 5738 5738 5737 5737 5736 5735 5735 5735 5736 5735 5734 5734 5734 5734 5732 5731 5734 5732 5730 5730 5729 5728
5746 5747 5749 5750 5751 5752 5752 5753 5753 5754 5754 5754 5753 5753 5752 5751 5750 5749 5748 5747 5747 5744 5742 5742 5739 5737 5736 5733 5734 5733 5733 5732 5732 5731 5730 5729 5728 5728 5729 5727 5727 5727 5725 5724 5723 5721 5721
5735 5738 5739 5740 5742 5743 5744 5744 5745 5746 5747 5746 5746 5747 5747 5747 5745 5744 5743 5743 5742 5741 5740 5738 5737 5736 5735 5733 5730 5728 5726 5726 5725 5726 5725 5723 5723 5721 5721 5720 5719 5719 5718 5716 5714 5714 5711
5724 5726 5728 5730 5731 5732 5734 5734 5735 5736 5737 5737 5738 5738 5738 5739 5740 5739 5738 5737 5736 5735 5734 5732 5731 5732 5731 5728 5727 5725 5723 5720 5719 5716 5714 5713 5712 5712 5710 5709 5710 5712 5706 5704 5703 5703 5701
5711 5713 5716 5718 5720 5722 5722 5723 5725 5726 5727 5728 5727 5728 5728 5727 5728 5729 5729 5728 5728 5727 5728 5726 5724 5722 5720 5721 5720 5719 5718 5717 5715 5713 5710 5707 5703 5701 5697 5694 5697 5693 5691 5689 5689 5690 5684
5696 5699 5701 5703 5706 5709 5710 5711 5712 5714 5714 5715 5717 5717 5718 5718 5717 5717 5717 5717 5715 5714 5715 5716 5715 5713 5711 5710 5707 5707 5707 5707 5706 5704 5702 5701 5697 5695 5692 5688 5686 5683 5679 5678 5675 5671 5670
5679 5682 5685 5687 5690 5693 5695 5697 5699 5700 5701 5701 5702 5702 5704 5707 5707 5706 5706 5705 5704 5703 5702 5702 5702 5701 5701 5699 5697 5694 5693 5691 5692 5692 5690 5688 5684 5683 5682 5681 5676 5670 5667 5665 5665 5661 5658